This is the latest recevied weather packets stored in our database for station/object N7NMS-13. If no packets are shown the sender has not sent any weather packets the latest 10 day(s).
| Time | Temp. | Humidity | Pressure | Rain* | Wind** | Luminosity | Snow |
|---|---|---|---|---|---|---|---|
| 1778039454 | 16.11° C | 69% | - | 0 mm | - | - | - |
| 1778038853 | 16.11° C | 69% | - | 0 mm | - | - | - |
| 1778038253 | 16.67° C | 70% | - | 0 mm | - | - | - |
| 1778037653 | 16.67° C | 69% | - | 0 mm | - | - | - |
| 1778037053 | 16.67° C | 66% | - | 0 mm | - | - | - |
| 1778036453 | 16.67° C | 66% | - | 0 mm | - | - | - |
| 1778035853 | 16.67° C | 66% | - | 0 mm | - | - | - |
| 1778035252 | 16.67° C | 67% | - | 0 mm | - | - | - |
| 1778034652 | 16.67° C | 66% | - | 0 mm | - | - | - |
| 1778034052 | 17.22° C | 66% | - | 0 mm | - | - | - |
| 1778033452 | 17.22° C | 64% | - | 0 mm | - | - | - |
| 1778032852 | 16.67° C | 63% | - | 0 mm | - | - | - |
| 1778032252 | 17.22° C | 64% | - | 0 mm | - | - | - |
| 1778031651 | 17.22° C | 63% | - | 0 mm | - | - | - |
| 1778031051 | 17.78° C | 62% | - | 0 mm | - | - | - |
| 1778030451 | 17.78° C | 62% | - | 0 mm | - | - | - |
| 1778029851 | 17.22° C | 61% | - | 0 mm | - | - | - |
| 1778029251 | 17.78° C | 60% | - | 0 mm | - | - | - |
| 1778028650 | 18.33° C | 59% | - | 0 mm | - | - | - |
| 1778028050 | 19.44° C | 57% | - | 0 mm | - | - | - |
| 1778027450 | 19.44° C | 52% | - | 0 mm | - | - | - |
| 1778026850 | 20.56° C | 49% | - | 0 mm | - | - | - |
| 1778026250 | 21.67° C | 47% | - | 0 mm | - | - | - |
| 1778025650 | 21.67° C | 45% | - | 0 mm | - | - | - |
| 1778025050 | 22.22° C | 44% | - | 0 mm | - | - | - |
* Rain latest hour (hover to see other rain measurements)
** Current wind speed in m/s (hover to see current wind gust speed)